Wind_Speed
28 28 29 29 29 29 30 30 30 29 28 28 28 28 26 26 26 26 26 25 26 26 26 27 26 26 26 26 25 25 24 24 25 24 23 23 23 23 23 23 23 23 24 24
30 30 30 31 31 31 32 31 31 31 31 30 30 29 28 27 28 28 28 27 27 27 27 27 27 27 27 27 27 27 27 27 26 26 25 25 25 26 26 26 25 26 26 27
31 31 32 33 32 32 32 31 31 32 32 31 31 30 29 29 29 29 29 28 28 28 29 29 28 29 29 30 30 30 29 28 28 27 27 27 28 28 28 28 28 28 28 28
32 33 33 33 33 32 32 31 32 32 33 33 32 32 31 30 30 30 29 29 30 30 30 30 30 30 30 31 32 31 30 30 29 29 30 30 31 30 30 31 30 30 30 30
32 33 33 34 34 32 32 33 33 33 33 33 33 33 32 31 31 31 30 30 31 31 31 31 31 32 32 32 32 32 32 31 31 31 32 32 33 33 33 32 32 31 31 31
33 33 32 32 33 32 33 35 34 35 35 34 33 33 32 32 32 32 31 31 32 31 32 31 32 32 33 33 33 33 33 33 33 33 34 34 35 35 34 34 33 32 33 32
34 34 32 32 32 31 33 34 34 34 34 34 34 33 33 33 33 33 33 32 32 32 32 33 33 33 34 34 34 34 34 34 34 34 35 35 35 35 35 36 36 35 35 34
33 34 33 33 32 32 32 33 34 33 33 33 34 34 34 33 33 33 34 34 33 33 33 33 34 34 34 34 35 35 35 35 35 36 36 36 36 36 36 36 36 35 36 34
34 34 34 34 33 32 32 32 32 32 32 33 33 33 32 33 33 34 34 34 34 34 33 34 34 35 35 36 36 36 36 36 36 36 37 37 37 37 36 36 35 35 35 34
34 34 34 33 33 33 32 32 32 32 32 32 32 31 32 32 33 33 33 33 34 34 34 34 35 35 35 36 36 36 36 36 36 37 37 37 37 36 36 36 35 35 35 34
34 34 34 33 34 33 33 32 33 32 32 32 31 31 31 31 32 32 32 33 34 34 34 34 35 36 36 36 36 35 35 35 36 36 36 37 36 36 36 36 35 35 35 35
34 34 34 34 34 33 32 33 32 31 31 31 30 29 29 30 31 32 32 32 33 33 34 34 35 35 35 35 35 34 34 34 35 35 35 36 36 35 35 35 35 34 35 35
32 32 33 32 32 32 32 31 31 31 30 29 30 29 29 30 31 32 32 32 33 33 33 32 32 33 34 34 34 33 33 33 34 34 34 34 34 34 34 34 33 33 34 34
30 31 31 31 31 31 31 30 29 29 29 29 30 29 29 30 31 31 32 32 33 33 32 32 32 33 33 33 33 32 32 32 32 33 33 32 32 33 33 33 33 33 33 33
28 29 29 30 30 29 29 29 29 29 28 29 29 28 28 29 29 29 29 30 30 31 32 31 32 32 32 32 32 32 32 31 31 31 31 31 31 31 31 31 31 31 30 31
25 26 27 28 29 29 28 28 28 28 27 28 28 28 28 28 29 28 28 28 28 29 29 30 30 30 31 31 31 31 31 30 30 30 30 30 31 30 30 30 30 29 30 30
24 24 25 25 26 27 27 27 27 27 26 26 26 27 27 27 27 27 27 27 28 28 27 28 28 29 30 30 30 30 30 30 29 29 29 29 29 29 29 29 29 29 29 30
22 23 23 23 24 25 26 26 26 25 24 24 25 25 25 26 26 26 26 26 27 27 27 27 27 28 28 27 27 27 27 26 27 27 27 27 27 27 27 28 28 28 29 29
20 20 21 21 22 23 23 23 23 24 24 23 23 23 23 23 24 24 25 25 25 26 26 26 26 26 26 25 25 25 25 25 25 25 26 26 26 26 26 26 26 26 26 25
18 18 18 18 19 20 20 20 21 22 22 21 21 21 21 21 22 22 23 23 24 24 25 24 24 23 23 22 22 23 23 23 23 24 24 24 24 24 24 24 24 24 24 23
15 15 15 16 16 17 17 17 18 18 17 18 19 20 20 19 19 20 20 21 22 22 22 22 21 20 20 21 22 22 22 22 23 23 22 22 22 22 22 23 22 22 22 21
13 13 14 14 15 15 15 16 16 16 16 16 15 16 17 17 17 17 18 19 20 20 20 21 21 21 20 20 22 22 22 21 21 21 21 21 22 22 23 22 22 21 21 20
12 12 12 12 12 12 13 13 13 13 13 13 13 13 14 15 16 16 17 18 18 18 19 20 20 20 20 20 21 21 21 20 19 19 20 20 21 22 21 20 21 22 21 21
9 9 10 9 9 9 9 9 9 10 11 11 10 10 11 12 14 14 15 16 17 17 17 17 18 18 19 19 19 19 19 19 19 19 19 19 21 21 20 20 21 21 21 21
8 8 8 8 8 8 8 8 8 8 9 9 9 9 9 10 11 11 12 13 14 15 15 16 16 16 16 17 18 18 18 18 18 18 19 19 19 19 19 20 19 20 21 21
7 7 6 6 6 6 6 7 7 7 8 8 8 9 9 9 9 10 11 11 12 13 14 15 16 16 16 16 16 17 17 17 17 18 18 18 18 19 19 19 19 20 21 21
6 5 5 6 6 6 6 6 6 7 8 8 8 9 9 8 8 9 10 10 11 12 13 13 14 15 15 16 17 17 17 18 18 18 19 19 20 20 20 20 21 21 22 22
Wind_Direction
251 252 255 257 257 257 258 258 259 262 262 262 262 262 262 261 260 261 259 257 256 255 254 255 255 255 256 255 257 259 260 260 262 264 266 269 273 275 279 281 280 283 285 287
252 253 254 256 256 258 259 259 260 261 262 262 263 262 262 261 261 261 259 256 254 254 252 253 253 254 255 254 256 257 259 260 262 264 267 271 274 276 278 279 281 282 284 286
255 255 256 257 257 259 260 260 259 260 261 262 262 262 262 261 261 261 260 257 254 252 252 253 255 255 255 255 257 259 258 259 262 264 268 272 274 275 278 279 282 283 283 282
256 257 258 259 260 260 260 259 260 260 261 262 261 262 261 261 261 260 259 257 255 253 252 252 254 256 257 257 257 258 258 259 261 265 269 272 273 275 276 279 281 282 282 281
258 261 262 260 260 261 261 260 259 261 262 261 261 262 262 259 259 259 258 256 255 254 252 253 254 256 258 258 258 258 258 260 261 265 269 272 273 274 275 276 278 280 280 280
259 260 262 265 265 264 263 262 260 261 262 262 261 262 261 258 258 257 257 256 255 252 251 253 255 256 257 259 258 258 259 259 261 264 268 271 273 272 274 275 275 277 278 279
260 262 263 263 266 265 263 264 264 262 262 262 261 261 261 258 257 256 255 256 255 253 252 253 255 258 259 260 258 258 259 260 261 264 267 268 271 272 274 276 277 278 278 279
259 261 262 265 265 264 265 266 265 264 264 262 262 261 261 259 257 256 255 255 254 253 254 254 256 257 258 259 259 259 260 262 263 264 267 270 271 273 274 277 277 279 279 279
258 260 262 265 266 265 266 265 264 264 264 263 263 263 261 258 256 254 254 254 253 253 254 255 255 255 257 259 259 259 261 262 264 265 268 271 273 274 274 276 278 279 280 280
258 260 261 262 263 264 264 264 264 264 264 264 263 262 260 259 255 253 253 253 253 252 253 254 255 256 258 260 260 261 262 263 264 266 268 271 273 274 275 277 279 280 281 281
260 261 262 262 262 263 263 263 264 264 263 262 261 261 260 257 254 253 252 252 252 252 252 254 256 258 260 261 261 263 263 263 265 266 268 271 273 275 276 277 279 279 279 279
260 262 263 263 263 263 262 262 262 263 263 262 260 260 258 256 254 252 252 253 253 254 253 254 256 257 259 262 263 264 265 265 266 267 270 272 273 274 275 276 278 277 278 279
262 263 264 264 263 261 262 262 260 261 262 261 259 259 257 256 255 253 253 252 253 254 254 254 255 258 261 263 264 265 266 267 267 269 271 273 273 274 276 277 277 276 276 278
262 263 263 263 262 262 261 260 260 259 260 259 258 259 258 257 255 254 253 253 253 253 253 254 257 260 262 263 264 265 267 268 269 270 272 273 274 274 275 275 275 276 276 278
261 261 262 262 260 260 260 260 261 259 257 257 258 259 261 258 256 254 253 253 253 253 254 256 257 259 261 263 265 266 268 270 271 271 272 273 274 275 275 275 275 275 276 277
260 260 261 260 258 259 260 261 261 259 257 255 255 256 258 256 254 254 254 253 255 257 258 258 259 261 262 263 265 266 268 269 270 271 272 273 273 274 274 275 275 276 277 277
263 263 262 262 261 261 261 261 261 259 257 255 255 254 255 255 252 252 255 256 257 258 259 260 260 261 263 263 264 265 267 268 271 272 273 273 273 273 275 276 278 278 278 278
263 263 263 264 263 262 260 260 260 258 257 255 252 252 253 255 253 253 255 256 256 256 258 259 260 262 263 262 261 263 264 267 270 272 274 274 275 275 276 278 278 278 278 278
262 263 263 263 263 262 262 260 259 257 254 253 252 253 255 256 254 252 252 253 254 256 257 259 261 262 260 259 260 261 265 267 268 270 273 274 276 277 277 277 277 278 278 276
263 264 264 264 264 262 261 260 259 256 254 252 251 253 255 255 254 252 252 253 253 254 256 258 259 259 258 258 258 262 265 267 269 271 272 274 276 277 278 278 277 279 280 278
264 265 266 265 265 263 262 262 262 260 258 254 251 251 252 251 252 252 251 251 251 252 254 256 257 257 259 260 260 262 264 267 268 271 274 277 278 278 279 281 280 280 282 280
266 266 266 266 265 265 264 264 263 262 259 255 250 247 248 249 251 252 251 250 252 252 253 255 256 258 261 263 264 264 264 266 268 271 273 276 278 280 279 279 280 281 282 284
265 265 265 264 261 263 264 261 258 256 255 251 247 247 248 249 251 253 254 253 254 255 254 254 255 257 259 261 263 264 263 266 269 272 276 280 280 282 281 279 279 279 281 284
267 266 264 261 257 252 250 248 249 250 250 249 247 249 250 250 252 255 255 255 255 257 257 256 256 258 260 263 266 268 269 270 273 276 277 281 283 283 282 282 282 281 280 281
264 263 259 255 252 251 248 246 249 250 249 250 249 252 252 249 250 252 252 252 254 257 257 259 262 264 267 270 270 271 273 275 277 280 283 285 283 281 282 283 283 284 284 284
265 263 258 251 244 240 240 242 246 250 253 255 254 253 250 249 253 255 255 255 256 259 261 263 265 267 268 270 270 271 273 275 278 281 283 282 283 283 283 283 284 286 285 284
262 256 253 247 243 242 241 241 245 250 252 253 256 257 255 255 255 255 255 258 263 267 269 269 268 268 269 270 272 273 275 277 280 282 283 281 281 282 283 284 286 287 284 282
Height
5846 5847 5848 5848 5850 5851 5852 5853 5854 5856 5856 5856 5856 5856 5857 5858 5859 5860 5861 5862 5863 5864 5864 5865 5866 5867 5867 5868 5869 5870 5870 5871 5871 5871 5871 5871 5871 5870 5870 5869 5868 5867 5866 5865
5837 5838 5839 5840 5841 5842 5843 5844 5845 5846 5847 5848 5848 5848 5849 5850 5851 5852 5853 5854 5855 5856 5857 5857 5858 5859 5860 5861 5862 5863 5864 5864 5864 5865 5865 5865 5865 5864 5863 5862 5862 5861 5859 5858
5828 5829 5829 5831 5833 5834 5834 5836 5837 5838 5839 5839 5839 5840 5841 5842 5842 5843 5844 5845 5846 5847 5849 5850 5851 5852 5853 5854 5854 5855 5856 5857 5857 5858 5858 5858 5858 5857 5856 5855 5854 5853 5852 5851
5818 5819 5820 5825 5823 5824 5825 5826 5827 5827 5828 5829 5830 5831 5831 5832 5833 5834 5835 5836 5837 5839 5840 5841 5842 5844 5845 5845 5846 5847 5848 5849 5850 5850 5851 5850 5850 5849 5848 5847 5846 5845 5844 5843
5809 5809 5811 5813 5813 5815 5815 5816 5817 5818 5818 5819 5820 5821 5821 5822 5823 5824 5825 5827 5828 5829 5831 5832 5834 5835 5836 5837 5838 5839 5840 5841 5841 5842 5842 5842 5841 5840 5839 5838 5837 5836 5836 5834
5799 5800 5802 5804 5803 5805 5806 5805 5807 5807 5808 5809 5810 5811 5812 5812 5813 5814 5816 5817 5819 5820 5822 5824 5825 5826 5827 5828 5829 5830 5831 5831 5832 5833 5833 5832 5831 5830 5829 5828 5828 5827 5827 5825
5790 5790 5793 5793 5793 5795 5796 5796 5796 5797 5797 5798 5799 5801 5801 5802 5803 5804 5806 5807 5809 5811 5813 5814 5816 5817 5818 5819 5820 5821 5821 5822 5823 5823 5823 5822 5821 5820 5820 5820 5819 5818 5817 5816
5781 5782 5785 5783 5784 5785 5785 5786 5786 5786 5787 5788 5789 5789 5790 5791 5792 5794 5796 5797 5799 5801 5803 5804 5806 5807 5809 5810 5811 5811 5812 5812 5812 5813 5813 5812 5812 5811 5810 5810 5809 5808 5807 5806
5772 5774 5773 5773 5773 5774 5775 5775 5776 5777 5778 5778 5778 5779 5779 5781 5782 5784 5785 5787 5789 5791 5793 5794 5796 5798 5799 5800 5800 5801 5802 5802 5802 5803 5803 5802 5802 5801 5801 5800 5799 5798 5797 5796
5761 5762 5763 5764 5764 5765 5765 5766 5766 5767 5768 5768 5768 5769 5770 5770 5771 5773 5775 5777 5779 5781 5783 5785 5786 5788 5789 5789 5790 5791 5792 5792 5792 5792 5792 5792 5791 5791 5791 5790 5789 5788 5787 5786
5751 5752 5753 5754 5754 5755 5755 5756 5757 5757 5758 5758 5759 5759 5760 5760 5761 5763 5765 5766 5769 5771 5773 5775 5776 5778 5779 5780 5780 5781 5781 5781 5782 5782 5782 5782 5781 5781 5781 5780 5779 5778 5777 5776
5741 5742 5742 5744 5744 5744 5745 5746 5747 5748 5748 5748 5749 5750 5750 5751 5752 5754 5755 5757 5759 5761 5763 5765 5766 5767 5768 5769 5770 5771 5772 5772 5772 5772 5772 5772 5771 5771 5770 5770 5769 5768 5767 5766
5730 5731 5732 5733 5734 5734 5735 5736 5737 5738 5738 5739 5739 5740 5741 5742 5743 5745 5747 5748 5750 5751 5753 5755 5757 5758 5759 5760 5761 5761 5762 5762 5762 5762 5762 5761 5761 5760 5760 5759 5758 5758 5757 5755
5721 5721 5722 5723 5724 5725 5725 5726 5727 5728 5729 5730 5730 5731 5731 5732 5734 5735 5737 5739 5740 5742 5744 5746 5747 5749 5750 5751 5751 5752 5753 5753 5753 5752 5752 5752 5751 5750 5749 5749 5748 5747 5746 5745
5712 5712 5713 5714 5714 5715 5716 5717 5718 5719 5720 5721 5721 5722 5722 5723 5725 5727 5728 5730 5732 5733 5735 5737 5738 5739 5740 5741 5742 5743 5743 5743 5743 5743 5742 5742 5741 5741 5740 5739 5738 5737 5736 5735
5703 5704 5704 5705 5705 5706 5707 5708 5709 5709 5710 5711 5712 5713 5714 5715 5717 5718 5720 5721 5723 5725 5726 5728 5729 5730 5731 5732 5733 5733 5734 5734 5734 5734 5733 5732 5732 5731 5730 5729 5728 5727 5727 5726
5694 5695 5696 5696 5697 5697 5698 5699 5700 5701 5701 5703 5704 5705 5706 5707 5709 5711 5712 5714 5715 5716 5718 5719 5721 5722 5723 5723 5724 5724 5725 5725 5725 5724 5724 5723 5722 5722 5721 5720 5719 5718 5717 5716
5687 5687 5687 5688 5688 5689 5689 5690 5691 5692 5693 5694 5695 5697 5698 5699 5701 5703 5704 5706 5707 5709 5710 5711 5712 5713 5714 5715 5715 5715 5716 5716 5716 5715 5715 5714 5714 5713 5712 5711 5710 5709 5708 5707
5680 5680 5680 5681 5681 5681 5682 5682 5683 5684 5686 5687 5688 5689 5691 5692 5693 5695 5697 5698 5700 5701 5703 5704 5705 5705 5706 5706 5706 5707 5707 5707 5707 5707 5707 5706 5705 5704 5704 5703 5702 5700 5699 5698
5674 5674 5674 5674 5675 5675 5675 5676 5677 5678 5678 5679 5681 5683 5684 5685 5687 5688 5689 5691 5692 5694 5695 5696 5697 5698 5698 5698 5699 5699 5700 5700 5700 5699 5699 5698 5698 5697 5696 5695 5694 5693 5691 5689
5669 5669 5669 5669 5669 5670 5670 5671 5671 5672 5672 5673 5675 5676 5677 5679 5680 5681 5683 5684 5686 5687 5688 5689 5690 5691 5692 5692 5692 5693 5693 5693 5692 5692 5691 5691 5690 5689 5689 5688 5687 5685 5684 5682
5665 5665 5665 5665 5665 5665 5665 5666 5666 5667 5668 5668 5669 5671 5672 5673 5675 5676 5677 5679 5679 5680 5682 5683 5684 5685 5685 5686 5686 5686 5686 5686 5685 5685 5684 5684 5683 5682 5681 5681 5680 5678 5677 5676
5661 5661 5661 5661 5661 5661 5661 5661 5662 5663 5664 5664 5665 5666 5668 5669 5670 5671 5672 5673 5674 5674 5675 5677 5678 5679 5679 5680 5680 5679 5679 5679 5679 5678 5678 5677 5676 5675 5674 5673 5673 5672 5670 5669
5657 5657 5657 5657 5657 5657 5657 5658 5659 5660 5660 5661 5662 5663 5663 5664 5665 5666 5667 5668 5669 5670 5671 5671 5672 5673 5673 5673 5673 5673 5673 5673 5673 5672 5671 5670 5669 5669 5668 5666 5665 5664 5663 5662
5654 5653 5654 5654 5654 5654 5655 5655 5656 5657 5658 5659 5659 5659 5660 5661 5662 5663 5664 5665 5665 5666 5666 5667 5667 5667 5668 5668 5667 5667 5667 5667 5667 5666 5665 5663 5662 5661 5660 5659 5658 5657 5656 5655
5651 5651 5651 5651 5651 5652 5653 5654 5654 5655 5655 5656 5656 5657 5657 5658 5659 5660 5660 5661 5661 5661 5662 5662 5662 5662 5662 5662 5662 5662 5662 5661 5661 5660 5659 5657 5657 5655 5654 5653 5651 5650 5649 5648
5649 5649 5649 5649 5650 5650 5651 5652 5652 5653 5653 5654 5654 5654 5655 5656 5656 5657 5657 5657 5657 5657 5657 5657 5657 5657 5657 5657 5657 5657 5656 5655 5655 5654 5653 5652 5651 5649 5648 5646 5645 5643 5642 5640